User: anonymous   Login
Location: Unspecified
(0.0000°N, 0.0000°E)
Time: 22:02:08
(UTC+00:00)
Language:

Relay 2 - Orbit

View from above orbital plane
View from above orbital plane
View from above satellite
View from above satellite

Ground track
Ground track

The orbit data is extracted from the following two-line orbital elements,

1   737U 64003A   17289.38964032 -.00000025 +00000-0 +00000-0 0  9990
2   737 046.4499 308.0228 2590285 072.9516 313.6674 07.39535870451871
Epoch (UTC): 16 October 2017 09:21:04
Eccentricity: 0.2590285
inclination: 46.4499°
perigee height: 1867 km
apogee height: 7632 km
right ascension of ascending node: 308.0228°
argument of perigee: 72.9516°
revolutions per day: 7.39535870
mean anomaly at epoch: 313.6674°
orbit number at epoch: 45187

The dashed part of the orbit path shows where the satellite is in the earth's shadow,  

DLR